Time,TemperatureF,DewpointF,PressureIn,WindDirection,WindDirectionDegrees,WindSpeedMPH,WindSpeedGustMPH,Humidity,HourlyPrecipIn,Conditions,Clouds,dailyrainin,SoftwareType,DateUTC
2013-06-01 00:03:00,65.9,62.9,30.11,SSE,158,0.0,0.0,90,0.00,,CLR,0.00,VWS V14.01,2013-06-01 04:03:00,
2013-06-01 00:04:00,65.9,62.9,30.11,SSE,158,0.0,0.0,90,0.00,,CLR,0.00,VWS V14.01,2013-06-01 04:04:00,
2013-06-01 00:09:00,65.5,62.5,30.11,SSE,153,0.0,0.0,90,0.00,,CLR,0.00,VWS V14.01,2013-06-01 04:09:00,
2013-06-01 00:14:00,65.6,62.9,30.11,SSE,153,0.0,0.0,91,0.00,,CLR,0.00,VWS V14.01,2013-06-01 04:14:00,
2013-06-01 00:19:00,65.7,63.0,30.10,SW,218,0.0,1.0,91,0.00,,CLR,0.00,VWS V14.01,2013-06-01 04:19:00,
2013-06-01 00:24:00,65.8,63.1,30.10,WNW,293,0.0,0.0,91,0.00,,CLR,0.00,VWS V14.01,2013-06-01 04:24:00,
2013-06-01 00:29:00,65.6,62.9,30.10,WNW,293,0.0,0.0,91,0.00,,CLR,0.00,VWS V14.01,2013-06-01 04:29:00,
2013-06-01 00:34:00,65.6,62.9,30.10,WNW,293,0.0,0.0,91,0.00,,CLR,0.00,VWS V14.01,2013-06-01 04:34:00,
2013-06-01 00:39:00,65.8,63.1,30.10,WNW,293,0.0,0.0,91,0.00,,BKN070,0.00,VWS V14.01,2013-06-01 04:39:00,
2013-06-01 00:44:00,65.9,63.2,30.10,WNW,291,0.0,0.0,91,0.00,,BKN070,0.00,VWS V14.01,2013-06-01 04:44:00,
2013-06-01 00:49:00,66.0,63.3,30.10,WNW,291,0.0,0.0,91,0.00,,BKN070,0.00,VWS V14.01,2013-06-01 04:49:00,
2013-06-01 00:54:00,66.0,63.3,30.10,WNW,291,0.0,0.0,91,0.00,,BKN070,0.00,VWS V14.01,2013-06-01 04:54:00,
2013-06-01 00:59:00,66.1,63.4,30.10,South,169,1.0,1.0,91,0.00,,BKN080,0.00,VWS V14.01,2013-06-01 04:59:00,
2013-06-01 01:04:00,66.1,63.4,30.10,SE,145,1.0,1.0,91,0.00,,BKN080,0.00,VWS V14.01,2013-06-01 05:04:00,
2013-06-01 01:09:00,66.0,63.3,30.10,SE,145,0.0,0.0,91,0.00,,BKN080,0.00,VWS V14.01,2013-06-01 05:09:00,
2013-06-01 01:14:00,66.1,63.4,30.10,SE,145,0.0,0.0,91,0.00,,BKN080,0.00,VWS V14.01,2013-06-01 05:14:00,
2013-06-01 01:19:00,66.3,63.6,30.10,SE,145,0.0,0.0,91,0.00,,BKN080,0.00,VWS V14.01,2013-06-01 05:19:00,
2013-06-01 01:24:00,66.4,63.7,30.10,SE,145,0.0,1.0,91,0.00,,BKN080,0.00,VWS V14.01,2013-06-01 05:24:00,
2013-06-01 01:29:00,66.3,63.6,30.10,SSE,163,0.0,0.0,91,0.00,,BKN080,0.00,VWS V14.01,2013-06-01 05:29:00,
2013-06-01 01:34:00,66.4,63.7,30.10,SSE,163,0.0,0.0,91,0.00,,BKN080,0.00,VWS V14.01,2013-06-01 05:34:00,
2013-06-01 01:39:00,66.4,63.4,30.10,SSE,163,0.0,0.0,90,0.00,,SCT065,0.00,VWS V14.01,2013-06-01 05:39:00,
2013-06-01 01:44:00,66.5,63.5,30.10,WNW,287,0.0,0.0,90,0.00,,SCT065,0.00,VWS V14.01,2013-06-01 05:44:00,
2013-06-01 01:49:00,66.7,63.7,30.10,WNW,291,1.0,1.0,90,0.00,,SCT065,0.00,VWS V14.01,2013-06-01 05:49:00,
2013-06-01 01:54:00,66.8,63.8,30.10,SW,229,1.0,1.0,90,0.00,,SCT065,0.00,VWS V14.01,2013-06-01 05:54:00,
2013-06-01 01:59:00,67.1,63.8,30.10,NW,311,2.0,2.0,89,0.00,,SCT065,0.00,VWS V14.01,2013-06-01 05:59:00,
2013-06-01 02:04:00,67.1,64.1,30.10,NW,309,1.0,1.0,90,0.00,,CLR,0.00,VWS V14.01,2013-06-01 06:04:00,
2013-06-01 02:09:00,67.5,64.2,30.10,NW,311,0.0,0.0,89,0.00,,CLR,0.00,VWS V14.01,2013-06-01 06:09:00,
2013-06-01 02:14:00,67.9,64.2,30.10,West,266,0.0,0.0,88,0.00,,CLR,0.00,VWS V14.01,2013-06-01 06:14:00,
2013-06-01 02:19:00,68.1,64.4,30.10,WNW,293,0.0,1.0,88,0.00,,CLR,0.00,VWS V14.01,2013-06-01 06:19:00,
2013-06-01 02:24:00,67.9,64.2,30.10,WNW,293,0.0,0.0,88,0.00,,SCT042,0.00,VWS V14.01,2013-06-01 06:24:00,
2013-06-01 02:29:00,67.9,64.5,30.10,WNW,293,0.0,0.0,89,0.00,,SCT042,0.00,VWS V14.01,2013-06-01 06:29:00,
2013-06-01 02:34:00,67.9,64.5,30.10,WNW,293,0.0,0.0,89,0.00,,SCT042,0.00,VWS V14.01,2013-06-01 06:34:00,
2013-06-01 02:39:00,68.1,65.1,30.10,SW,229,0.0,0.0,90,0.00,,SCT045,0.00,VWS V14.01,2013-06-01 06:39:00,
2013-06-01 02:44:00,68.4,65.0,30.10,WSW,240,0.0,1.0,89,0.00,,SCT045,0.00,VWS V14.01,2013-06-01 06:44:00,
2013-06-01 02:49:00,68.5,64.8,30.10,NNW,333,0.0,0.0,88,0.00,,SCT045,0.00,VWS V14.01,2013-06-01 06:49:00,
2013-06-01 02:53:00,68.5,65.1,30.10,NNW,333,0.0,0.0,89,0.00,,SCT045,0.00,VWS V14.01,2013-06-01 06:53:00,
2013-06-01 02:58:00,68.3,64.6,30.10,NW,314,1.0,1.0,88,0.00,,SCT045,0.00,VWS V14.01,2013-06-01 06:58:00,
2013-06-01 03:03:00,68.2,64.8,30.10,NW,313,0.0,0.0,89,0.00,,SCT055,0.00,VWS V14.01,2013-06-01 07:03:00,
2013-06-01 03:08:00,68.1,64.4,30.10,NW,313,1.0,1.0,88,0.00,,SCT055,0.00,VWS V14.01,2013-06-01 07:08:00,
2013-06-01 03:13:00,67.9,64.2,30.10,WNW,300,0.0,1.0,88,0.00,,SCT055,0.00,VWS V14.01,2013-06-01 07:13:00,
2013-06-01 03:18:00,67.5,64.2,30.10,WNW,300,0.0,0.0,89,0.00,,SCT055,0.00,VWS V14.01,2013-06-01 07:18:00,
2013-06-01 03:23:00,67.1,64.1,30.11,WNW,300,0.0,0.0,90,0.00,,SCT055,0.00,VWS V14.01,2013-06-01 07:23:00,
2013-06-01 03:28:00,66.6,63.6,30.11,NNE,30,0.0,1.0,90,0.00,,SCT055,0.00,VWS V14.01,2013-06-01 07:28:00,
2013-06-01 03:33:00,66.2,63.5,30.11,NNE,30,0.0,0.0,91,0.00,,SCT055,0.00,VWS V14.01,2013-06-01 07:33:00,
2013-06-01 03:38:00,65.8,63.1,30.11,NNE,30,0.0,0.0,91,0.00,,SCT055,0.00,VWS V14.01,2013-06-01 07:38:00,
2013-06-01 03:43:00,65.5,63.1,30.10,NNE,30,0.0,0.0,92,0.00,,CLR,0.00,VWS V14.01,2013-06-01 07:43:00,
2013-06-01 03:48:00,65.3,62.9,30.10,NNE,30,0.0,0.0,92,0.00,,CLR,0.00,VWS V14.01,2013-06-01 07:48:00,
2013-06-01 03:53:00,65.2,62.8,30.10,NNE,30,0.0,0.0,92,0.00,,CLR,0.00,VWS V14.01,2013-06-01 07:53:00,
2013-06-01 03:58:00,65.0,62.9,30.10,NE,35,0.0,0.0,93,0.00,,CLR,0.00,VWS V14.01,2013-06-01 07:58:00,
2013-06-01 04:03:00,64.7,62.6,30.10,SE,145,0.0,1.0,93,0.00,,CLR,0.00,VWS V14.01,2013-06-01 08:03:00,
2013-06-01 04:08:00,64.5,62.7,30.10,SE,145,0.0,0.0,94,0.00,,CLR,0.00,VWS V14.01,2013-06-01 08:08:00,
2013-06-01 04:13:00,64.4,62.6,30.10,SE,145,0.0,0.0,94,0.00,,CLR,0.00,VWS V14.01,2013-06-01 08:13:00,
2013-06-01 04:18:00,64.3,62.5,30.10,SE,145,0.0,0.0,94,0.00,,SCT050,0.00,VWS V14.01,2013-06-01 08:18:00,
2013-06-01 04:23:00,64.0,62.2,30.10,SE,145,0.0,0.0,94,0.00,,SCT050,0.00,VWS V14.01,2013-06-01 08:23:00,
2013-06-01 04:28:00,63.9,62.1,30.10,SE,145,0.0,0.0,94,0.00,,SCT050,0.00,VWS V14.01,2013-06-01 08:28:00,
2013-06-01 04:33:00,63.7,62.0,30.10,SE,145,0.0,0.0,94,0.00,,SCT050,0.00,VWS V14.01,2013-06-01 08:33:00,
2013-06-01 04:38:00,63.7,62.2,30.10,SE,145,0.0,0.0,95,0.00,,SCT050,0.00,VWS V14.01,2013-06-01 08:38:00,
2013-06-01 04:43:00,63.7,62.2,30.10,West,267,1.0,1.0,95,0.00,,,0.00,VWS V14.01,2013-06-01 08:43:00,
2013-06-01 04:48:00,63.6,62.2,30.10,West,280,0.0,1.0,95,0.00,,,0.00,VWS V14.01,2013-06-01 08:48:00,
2013-06-01 04:53:00,63.5,62.0,30.10,West,280,0.0,0.0,95,0.00,,,0.00,VWS V14.01,2013-06-01 08:53:00,
2013-06-01 04:58:00,63.5,62.0,30.10,West,280,0.0,0.0,95,0.00,,,0.00,VWS V14.01,2013-06-01 08:58:00,
2013-06-01 05:03:00,63.4,62.0,30.10,West,279,0.0,0.0,95,0.00,,,0.00,VWS V14.01,2013-06-01 09:03:00,
2013-06-01 05:08:00,63.4,62.0,30.10,West,278,0.0,0.0,95,0.00,,,0.00,VWS V14.01,2013-06-01 09:08:00,
2013-06-01 05:13:00,63.4,62.0,30.10,SE,145,0.0,0.0,95,0.00,,,0.00,VWS V14.01,2013-06-01 09:13:00,
2013-06-01 05:18:00,63.5,62.3,30.09,SE,145,0.0,0.0,96,0.00,,,0.00,VWS V14.01,2013-06-01 09:18:00,
2013-06-01 05:23:00,63.5,62.3,30.09,WNW,290,1.0,1.0,96,0.00,,BKN046,0.00,VWS V14.01,2013-06-01 09:23:00,
2013-06-01 05:28:00,63.6,62.2,30.09,WNW,288,0.0,0.0,95,0.00,,BKN046,0.00,VWS V14.01,2013-06-01 09:28:00,
2013-06-01 05:33:00,63.6,62.2,30.09,WNW,288,0.0,0.0,95,0.00,,BKN046,0.00,VWS V14.01,2013-06-01 09:33:00,
2013-06-01 05:38:00,63.4,62.0,30.10,SSE,166,0.0,0.0,95,0.00,,BKN046,0.00,VWS V14.01,2013-06-01 09:38:00,
2013-06-01 05:43:00,63.3,61.8,30.10,SSE,166,0.0,0.0,95,0.00,,BKN050,0.00,VWS V14.01,2013-06-01 09:43:00,
2013-06-01 05:48:00,63.2,61.8,30.10,SSE,166,0.0,0.0,95,0.00,,BKN050,0.00,VWS V14.01,2013-06-01 09:48:00,
2013-06-01 05:53:00,63.4,62.2,30.10,SSE,166,0.0,0.0,96,0.00,,BKN050,0.00,VWS V14.01,2013-06-01 09:53:00,
2013-06-01 05:58:00,63.3,61.8,30.10,SSE,166,0.0,0.0,95,0.00,,BKN050,0.00,VWS V14.01,2013-06-01 09:58:00,
2013-06-01 06:03:00,63.2,61.8,30.10,SSE,166,0.0,0.0,95,0.00,,SCT050,0.00,VWS V14.01,2013-06-01 10:03:00,
2013-06-01 06:08:00,63.1,61.7,30.10,SSE,166,0.0,0.0,95,0.00,,SCT050,0.00,VWS V14.01,2013-06-01 10:08:00,
2013-06-01 06:13:00,63.1,61.7,30.10,SSE,166,0.0,0.0,95,0.00,,SCT050,0.00,VWS V14.01,2013-06-01 10:13:00,
2013-06-01 06:18:00,63.1,61.7,30.10,SSW,212,0.0,0.0,95,0.00,,,0.00,VWS V14.01,2013-06-01 10:18:00,
2013-06-01 06:23:00,63.1,61.9,30.10,West,278,0.0,0.0,96,0.00,,,0.00,VWS V14.01,2013-06-01 10:23:00,
2013-06-01 06:28:00,63.1,61.7,30.10,West,277,0.0,0.0,95,0.00,,,0.00,VWS V14.01,2013-06-01 10:28:00,
2013-06-01 06:33:00,63.3,62.1,30.10,North,349,0.0,0.0,96,0.00,,,0.00,VWS V14.01,2013-06-01 10:33:00,
2013-06-01 06:38:00,63.5,62.0,30.10,NW,324,1.0,2.0,95,0.00,,,0.00,VWS V14.01,2013-06-01 10:38:00,
2013-06-01 06:43:00,63.7,62.5,30.10,WNW,302,0.0,1.0,96,0.00,,,0.00,VWS V14.01,2013-06-01 10:43:00,
2013-06-01 06:48:00,64.1,62.6,30.10,NW,305,0.0,0.0,95,0.00,,,0.00,VWS V14.01,2013-06-01 10:48:00,
2013-06-01 06:53:00,64.5,62.7,30.10,NW,305,0.0,0.0,94,0.00,,,0.00,VWS V14.01,2013-06-01 10:53:00,
2013-06-01 06:58:00,65.1,63.0,30.10,North,9,0.0,1.0,93,0.00,,,0.00,VWS V14.01,2013-06-01 10:58:00,
2013-06-01 07:03:00,65.6,63.5,30.09,North,8,0.0,0.0,93,0.00,,SCT110,0.00,VWS V14.01,2013-06-01 11:03:00,
2013-06-01 07:08:00,66.4,64.0,30.09,ENE,70,0.0,1.0,92,0.00,,SCT110,0.00,VWS V14.01,2013-06-01 11:08:00,
2013-06-01 07:13:00,67.3,64.3,30.09,ENE,69,0.0,0.0,90,0.00,,SCT110,0.00,VWS V14.01,2013-06-01 11:13:00,
2013-06-01 07:18:00,67.4,64.1,30.09,WNW,295,2.0,2.0,89,0.00,,SCT110,0.00,VWS V14.01,2013-06-01 11:18:00,
2013-06-01 07:23:00,67.0,64.3,30.10,NW,305,0.0,1.0,91,0.00,,SCT100,0.00,VWS V14.01,2013-06-01 11:23:00,
2013-06-01 07:28:00,67.2,64.5,30.09,NNE,33,1.0,1.0,91,0.00,,SCT100,0.00,VWS V14.01,2013-06-01 11:28:00,
2013-06-01 07:33:00,67.1,64.1,30.09,NNE,33,1.0,1.0,90,0.00,,SCT100,0.00,VWS V14.01,2013-06-01 11:33:00,
2013-06-01 07:38:00,66.8,64.4,30.09,NNE,29,0.0,0.0,92,0.00,,SCT100,0.00,VWS V14.01,2013-06-01 11:38:00,
2013-06-01 07:43:00,67.5,64.8,30.09,NE,45,0.0,0.0,91,0.00,,BKN100,0.00,VWS V14.01,2013-06-01 11:43:00,
2013-06-01 07:48:00,68.8,66.1,30.09,NE,46,0.0,0.0,91,0.00,,BKN100,0.00,VWS V14.01,2013-06-01 11:48:00,
2013-06-01 07:53:00,70.2,66.8,30.10,NE,46,0.0,0.0,89,0.00,,BKN100,0.00,VWS V14.01,2013-06-01 11:53:00,
2013-06-01 07:58:00,71.3,66.9,30.09,NNE,33,0.0,0.0,86,0.00,,BKN100,0.00,VWS V14.01,2013-06-01 11:58:00,
2013-06-01 08:03:00,71.9,66.8,30.10,NE,45,0.0,0.0,84,0.00,,BKN100,0.00,VWS V14.01,2013-06-01 12:03:00,
2013-06-01 08:08:00,72.5,67.1,30.10,North,8,0.0,0.0,83,0.00,,BKN100,0.00,VWS V14.01,2013-06-01 12:08:00,
2013-06-01 08:13:00,73.2,67.4,30.10,NNE,32,1.0,1.0,82,0.00,,BKN100,0.00,VWS V14.01,2013-06-01 12:13:00,
2013-06-01 08:18:00,73.5,66.6,30.10,ENE,74,0.0,4.0,79,0.00,,BKN100,0.00,VWS V14.01,2013-06-01 12:18:00,
2013-06-01 08:23:00,74.6,67.3,30.10,ENE,75,0.0,0.0,78,0.00,,SCT110,0.00,VWS V14.01,2013-06-01 12:23:00,
2013-06-01 08:28:00,75.9,67.0,30.10,ENE,58,0.0,0.0,74,0.00,,SCT110,0.00,VWS V14.01,2013-06-01 12:28:00,
2013-06-01 08:33:00,76.6,66.9,30.09,NE,52,0.0,0.0,72,0.00,,SCT110,0.00,VWS V14.01,2013-06-01 12:33:00,
2013-06-01 08:38:00,76.8,67.1,30.09,NE,53,0.0,0.0,72,0.00,,SCT110,0.00,VWS V14.01,2013-06-01 12:38:00,
2013-06-01 08:43:00,77.8,66.4,30.09,NW,308,0.0,0.0,68,0.00,,SCT110,0.00,VWS V14.01,2013-06-01 12:43:00,
2013-06-01 08:48:00,78.6,63.1,30.09,NW,305,4.0,7.0,59,0.00,,SCT110,0.00,VWS V14.01,2013-06-01 12:48:00,
2013-06-01 08:53:00,78.4,64.3,30.09,NW,316,0.0,2.0,62,0.00,,SCT110,0.00,VWS V14.01,2013-06-01 12:53:00,
2013-06-01 08:58:00,79.4,65.3,30.09,WNW,285,1.0,1.0,62,0.00,,SCT110,0.00,VWS V14.01,2013-06-01 12:58:00,
2013-06-01 09:03:00,79.9,63.3,30.09,SSE,162,1.0,5.0,57,0.00,,BKN110,0.00,VWS V14.01,2013-06-01 13:03:00,
2013-06-01 09:08:00,80.2,64.1,30.09,West,276,1.0,5.0,58,0.00,,BKN110,0.00,VWS V14.01,2013-06-01 13:08:00,
2013-06-01 09:13:00,80.4,64.8,30.09,West,276,1.0,1.0,59,0.00,,BKN110,0.00,VWS V14.01,2013-06-01 13:13:00,
2013-06-01 09:18:00,80.9,64.2,30.09,West,280,0.0,5.0,57,0.00,,BKN110,0.00,VWS V14.01,2013-06-01 13:18:00,
2013-06-01 09:23:00,80.7,65.1,30.09,SW,232,1.0,1.0,59,0.00,,SCT110,0.00,VWS V14.01,2013-06-01 13:23:00,
2013-06-01 09:28:00,80.0,64.4,30.09,WSW,245,2.0,2.0,59,0.00,,SCT110,0.00,VWS V14.01,2013-06-01 13:28:00,
2013-06-01 09:33:00,79.6,64.5,30.09,SW,229,0.0,0.0,60,0.00,,SCT110,0.00,VWS V14.01,2013-06-01 13:33:00,
2013-06-01 09:38:00,79.6,64.0,30.09,SW,226,1.0,2.0,59,0.00,,SCT110,0.00,VWS V14.01,2013-06-01 13:38:00,
2013-06-01 09:43:00,79.6,64.0,30.09,SW,224,0.0,2.0,59,0.00,,SCT120,0.00,VWS V14.01,2013-06-01 13:43:00,
2013-06-01 09:48:00,79.4,64.8,30.09,SW,232,1.0,2.0,61,0.00,,SCT120,0.00,VWS V14.01,2013-06-01 13:48:00,
2013-06-01 09:53:00,79.7,64.6,30.09,SW,231,2.0,3.0,60,0.00,,SCT120,0.00,VWS V14.01,2013-06-01 13:53:00,
2013-06-01 09:58:00,80.5,65.3,30.09,SW,224,2.0,2.0,60,0.00,,SCT120,0.00,VWS V14.01,2013-06-01 13:58:00,
2013-06-01 10:03:00,81.0,64.8,30.09,SW,229,2.0,3.0,58,0.00,,BKN110,0.00,VWS V14.01,2013-06-01 14:03:00,
2013-06-01 10:08:00,80.3,63.2,30.09,SW,215,2.0,6.0,56,0.00,,BKN110,0.00,VWS V14.01,2013-06-01 14:08:00,
2013-06-01 10:13:00,80.6,64.0,30.09,SW,224,2.0,2.0,57,0.00,,BKN110,0.00,VWS V14.01,2013-06-01 14:13:00,
2013-06-01 10:18:00,81.0,63.3,30.09,WSW,252,4.0,10.0,55,0.00,,BKN110,0.00,VWS V14.01,2013-06-01 14:18:00,
2013-06-01 10:23:00,80.5,63.4,30.09,SW,226,2.0,4.0,56,0.00,,SCT110,0.00,VWS V14.01,2013-06-01 14:23:00,
2013-06-01 10:28:00,80.8,63.1,30.09,WSW,239,2.0,4.0,55,0.00,,SCT110,0.00,VWS V14.01,2013-06-01 14:28:00,
2013-06-01 10:33:00,81.0,63.3,30.09,SSE,150,0.0,5.0,55,0.00,,SCT110,0.00,VWS V14.01,2013-06-01 14:33:00,
2013-06-01 10:38:00,81.2,63.0,30.09,WSW,248,6.0,8.0,54,0.00,,SCT110,0.00,VWS V14.01,2013-06-01 14:38:00,
2013-06-01 10:43:00,81.2,63.0,30.09,SW,226,5.0,8.0,54,0.00,,CLR,0.00,VWS V14.01,2013-06-01 14:43:00,
2013-06-01 10:48:00,81.2,62.5,30.09,SW,229,5.0,5.0,53,0.00,,CLR,0.00,VWS V14.01,2013-06-01 14:48:00,
2013-06-01 10:53:00,81.6,63.4,30.09,NNW,330,2.0,7.0,54,0.00,,CLR,0.00,VWS V14.01,2013-06-01 14:53:00,
2013-06-01 10:58:00,82.6,64.3,30.09,SW,222,1.0,3.0,54,0.00,,CLR,0.00,VWS V14.01,2013-06-01 14:58:00,
2013-06-01 11:03:00,83.3,63.9,30.09,SW,215,2.0,3.0,52,0.00,,SCT110,0.00,VWS V14.01,2013-06-01 15:03:00,
2013-06-01 11:08:00,83.3,64.4,30.09,NW,307,1.0,2.0,53,0.00,,SCT110,0.00,VWS V14.01,2013-06-01 15:08:00,
2013-06-01 11:13:00,82.8,63.9,30.09,SW,226,2.0,4.0,53,0.00,,SCT110,0.00,VWS V14.01,2013-06-01 15:13:00,
2013-06-01 11:18:00,83.0,65.7,30.09,ESE,122,1.0,4.0,56,0.00,,SCT110,0.00,VWS V14.01,2013-06-01 15:18:00,
2013-06-01 11:23:00,83.2,65.4,30.09,SW,221,1.0,6.0,55,0.00,,CLR,0.00,VWS V14.01,2013-06-01 15:23:00,
2013-06-01 11:28:00,84.1,64.6,30.09,SW,229,3.0,3.0,52,0.00,,CLR,0.00,VWS V14.01,2013-06-01 15:28:00,
2013-06-01 11:33:00,84.3,65.3,30.09,SW,233,2.0,2.0,53,0.00,,CLR,0.00,VWS V14.01,2013-06-01 15:33:00,
2013-06-01 11:38:00,84.8,65.2,30.10,SW,218,1.0,3.0,52,0.00,,CLR,0.00,VWS V14.01,2013-06-01 15:38:00,
2013-06-01 11:43:00,84.7,64.0,30.10,SW,236,2.0,4.0,50,0.00,,CLR,0.00,VWS V14.01,2013-06-01 15:43:00,
2013-06-01 11:48:00,85.0,64.9,30.10,SW,224,4.0,6.0,51,0.00,,CLR,0.00,VWS V14.01,2013-06-01 15:48:00,
2013-06-01 11:53:00,84.3,63.1,30.09,SSE,162,4.0,4.0,49,0.00,,CLR,0.00,VWS V14.01,2013-06-01 15:53:00,
2013-06-01 11:58:00,84.3,63.7,30.09,SW,218,3.0,7.0,50,0.00,,CLR,0.00,VWS V14.01,2013-06-01 15:58:00,
2013-06-01 12:03:00,84.3,63.7,30.09,SW,229,2.0,4.0,50,0.00,,CLR,0.00,VWS V14.01,2013-06-01 16:03:00,
2013-06-01 12:08:00,84.3,63.7,30.09,West,262,3.0,6.0,50,0.00,,CLR,0.00,VWS V14.01,2013-06-01 16:08:00,
2013-06-01 12:13:00,84.7,63.5,30.08,SSW,207,4.0,10.0,49,0.00,,CLR,0.00,VWS V14.01,2013-06-01 16:13:00,
2013-06-01 12:18:00,84.2,64.7,30.09,SSE,151,2.0,4.0,52,0.00,,CLR,0.00,VWS V14.01,2013-06-01 16:18:00,
2013-06-01 12:23:00,84.4,63.2,30.09,SSE,166,4.0,7.0,49,0.00,,CLR,0.00,VWS V14.01,2013-06-01 16:23:00,
2013-06-01 12:28:00,84.5,65.5,30.08,West,281,0.0,3.0,53,0.00,,CLR,0.00,VWS V14.01,2013-06-01 16:28:00,
2013-06-01 12:33:00,85.2,63.9,30.08,SW,229,1.0,4.0,49,0.00,,CLR,0.00,VWS V14.01,2013-06-01 16:33:00,
2013-06-01 12:38:00,85.2,63.9,30.08,SE,142,1.0,4.0,49,0.00,,CLR,0.00,VWS V14.01,2013-06-01 16:38:00,
2013-06-01 12:43:00,84.8,64.1,30.08,SSW,212,3.0,4.0,50,0.00,,CLR,0.00,VWS V14.01,2013-06-01 16:43:00,
2013-06-01 12:48:00,85.3,65.1,30.07,SSW,201,4.0,5.0,51,0.00,,CLR,0.00,VWS V14.01,2013-06-01 16:48:00,
2013-06-01 12:53:00,85.1,65.0,30.07,SSE,156,2.0,5.0,51,0.00,,CLR,0.00,VWS V14.01,2013-06-01 16:53:00,
2013-06-01 12:58:00,85.3,65.1,30.07,SSE,165,1.0,5.0,51,0.00,,CLR,0.00,VWS V14.01,2013-06-01 16:58:00,
2013-06-01 13:03:00,85.9,65.1,30.08,SSW,210,2.0,4.0,50,0.00,,CLR,0.00,VWS V14.01,2013-06-01 17:03:00,
2013-06-01 13:08:00,86.2,64.2,30.07,SSE,148,3.0,6.0,48,0.00,,CLR,0.00,VWS V14.01,2013-06-01 17:08:00,
2013-06-01 13:13:00,86.0,64.6,30.07,SSE,167,2.0,4.0,49,0.00,,CLR,0.00,VWS V14.01,2013-06-01 17:13:00,
2013-06-01 13:18:00,86.1,64.7,30.07,SW,235,6.0,8.0,49,0.00,,CLR,0.00,VWS V14.01,2013-06-01 17:18:00,
2013-06-01 13:23:00,85.7,64.9,30.07,SW,218,2.0,2.0,50,0.00,,CLR,0.00,VWS V14.01,2013-06-01 17:23:00,
2013-06-01 13:28:00,87.0,66.7,30.07,NW,322,1.0,3.0,51,0.00,,CLR,0.00,VWS V14.01,2013-06-01 17:28:00,
2013-06-01 13:33:00,86.7,64.1,30.07,SW,229,5.0,7.0,47,0.00,,CLR,0.00,VWS V14.01,2013-06-01 17:33:00,
2013-06-01 13:38:00,85.3,64.6,30.07,SSE,150,3.0,5.0,50,0.00,,CLR,0.00,VWS V14.01,2013-06-01 17:38:00,
2013-06-01 13:43:00,84.9,65.3,30.07,SSW,204,2.0,4.0,52,0.00,,SCT044,0.00,VWS V14.01,2013-06-01 17:43:00,
2013-06-01 13:48:00,85.1,65.5,30.07,SE,134,0.0,6.0,52,0.00,,SCT044,0.00,VWS V14.01,2013-06-01 17:48:00,
2013-06-01 13:53:00,85.5,64.2,30.06,South,174,2.0,5.0,49,0.00,,SCT044,0.00,VWS V14.01,2013-06-01 17:53:00,
2013-06-01 13:58:00,85.7,64.9,30.06,SW,225,3.0,8.0,50,0.00,,SCT044,0.00,VWS V14.01,2013-06-01 17:58:00,
2013-06-01 14:02:00,85.1,65.0,30.06,WSW,253,2.0,5.0,51,0.00,,SCT050,0.00,VWS V14.01,2013-06-01 18:02:00,
2013-06-01 14:07:00,85.3,64.6,30.06,SSE,150,1.0,6.0,50,0.00,,SCT050,0.00,VWS V14.01,2013-06-01 18:07:00,
2013-06-01 14:12:00,84.7,65.1,30.05,SW,218,2.0,4.0,52,0.00,,SCT050,0.00,VWS V14.01,2013-06-01 18:12:00,
2013-06-01 14:17:00,85.6,66.0,30.05,SSE,156,1.0,1.0,52,0.00,,SCT050,0.00,VWS V14.01,2013-06-01 18:17:00,
2013-06-01 14:22:00,86.8,65.9,30.05,SE,125,5.0,7.0,50,0.00,,CLR,0.00,VWS V14.01,2013-06-01 18:22:00,
2013-06-01 14:27:00,86.1,64.7,30.04,SSW,212,1.0,7.0,49,0.00,,CLR,0.00,VWS V14.01,2013-06-01 18:27:00,
2013-06-01 14:32:00,85.7,64.4,30.04,SSW,194,6.0,6.0,49,0.00,,CLR,0.00,VWS V14.01,2013-06-01 18:32:00,
2013-06-01 14:37:00,85.5,64.8,30.05,ESE,107,0.0,3.0,50,0.00,,CLR,0.00,VWS V14.01,2013-06-01 18:37:00,
2013-06-01 14:42:00,85.6,64.3,30.04,SW,220,2.0,8.0,49,0.00,,SCT046,0.00,VWS V14.01,2013-06-01 18:42:00,
2013-06-01 14:47:00,85.7,64.4,30.04,SSW,212,5.0,6.0,49,0.00,,SCT046,0.00,VWS V14.01,2013-06-01 18:47:00,
2013-06-01 14:52:00,85.9,65.1,30.04,South,186,2.0,10.0,50,0.00,,SCT046,0.00,VWS V14.01,2013-06-01 18:52:00,
2013-06-01 14:57:00,85.8,64.4,30.04,SSE,148,2.0,7.0,49,0.00,,SCT046,0.00,VWS V14.01,2013-06-01 18:57:00,
2013-06-01 15:02:00,84.8,64.1,30.04,SW,218,3.0,9.0,50,0.00,,BKN050,0.00,VWS V14.01,2013-06-01 19:02:00,
2013-06-01 15:07:00,85.0,64.3,30.04,SSW,201,3.0,7.0,50,0.00,,BKN050,0.00,VWS V14.01,2013-06-01 19:07:00,
2013-06-01 15:12:00,84.4,63.2,30.04,SSE,153,6.0,12.0,49,0.00,,BKN050,0.00,VWS V14.01,2013-06-01 19:12:00,
2013-06-01 15:17:00,84.1,64.0,30.03,SE,139,4.0,9.0,51,0.00,,BKN050,0.00,VWS V14.01,2013-06-01 19:17:00,
2013-06-01 15:22:00,84.1,62.3,30.03,SW,226,3.0,7.0,48,0.00,,SCT050,0.00,VWS V14.01,2013-06-01 19:22:00,
2013-06-01 15:29:00,84.3,64.2,30.03,SW,225,4.0,7.0,51,0.00,,SCT050,0.00,VWS V14.01,2013-06-01 19:29:00,
2013-06-01 15:41:00,85.0,63.1,30.03,West,270,3.0,5.0,48,0.00,,SCT050,0.00,VWS V14.01,2013-06-01 19:41:00,
2013-06-01 15:46:00,85.0,63.7,30.03,SSW,207,0.0,5.0,49,0.00,,SCT055,0.00,VWS V14.01,2013-06-01 19:46:00,
2013-06-01 15:51:00,85.3,64.0,30.03,SE,131,3.0,6.0,49,0.00,,SCT055,0.00,VWS V14.01,2013-06-01 19:51:00,
2013-06-01 15:56:00,85.5,64.2,30.03,SSE,148,1.0,4.0,49,0.00,,SCT055,0.00,VWS V14.01,2013-06-01 19:56:00,
2013-06-01 16:01:00,84.9,64.2,30.03,WSW,251,3.0,6.0,50,0.00,,SCT060,0.00,VWS V14.01,2013-06-01 20:01:00,
2013-06-01 16:06:00,84.0,62.2,30.03,SSW,212,2.0,13.0,48,0.00,,SCT060,0.00,VWS V14.01,2013-06-01 20:06:00,
2013-06-01 16:11:00,83.8,63.2,30.03,WSW,241,4.0,8.0,50,0.00,,SCT060,0.00,VWS V14.01,2013-06-01 20:11:00,
2013-06-01 16:16:00,83.9,63.8,30.03,SE,142,7.0,7.0,51,0.00,,SCT060,0.00,VWS V14.01,2013-06-01 20:16:00,
2013-06-01 16:21:00,83.6,63.6,30.03,SSW,207,2.0,7.0,51,0.00,,BKN060,0.00,VWS V14.01,2013-06-01 20:21:00,
2013-06-01 16:26:00,83.7,63.7,30.03,SSW,204,3.0,7.0,51,0.00,,BKN060,0.00,VWS V14.01,2013-06-01 20:26:00,
2013-06-01 16:31:00,83.8,63.2,30.03,SSW,197,4.0,7.0,50,0.00,,BKN060,0.00,VWS V14.01,2013-06-01 20:31:00,
2013-06-01 16:36:00,83.8,63.8,30.03,South,174,4.0,7.0,51,0.00,,BKN060,0.00,VWS V14.01,2013-06-01 20:36:00,
2013-06-01 16:41:00,83.8,63.8,30.02,SE,142,1.0,6.0,51,0.00,,SCT050,0.00,VWS V14.01,2013-06-01 20:41:00,
2013-06-01 16:46:00,83.9,63.3,30.02,SW,221,5.0,11.0,50,0.00,,SCT050,0.00,VWS V14.01,2013-06-01 20:46:00,
2013-06-01 16:51:00,83.7,63.1,30.02,SW,215,1.0,5.0,50,0.00,,SCT050,0.00,VWS V14.01,2013-06-01 20:51:00,
2013-06-01 16:56:00,83.4,62.8,30.03,West,269,6.0,7.0,50,0.00,,SCT050,0.00,VWS V14.01,2013-06-01 20:56:00,
2013-06-01 17:01:00,82.6,62.7,30.02,SW,233,2.0,4.0,51,0.00,,SCT055,0.00,VWS V14.01,2013-06-01 21:01:00,
2013-06-01 17:06:00,82.3,62.9,30.02,WSW,240,2.0,2.0,52,0.00,,SCT055,0.00,VWS V14.01,2013-06-01 21:06:00,
2013-06-01 17:11:00,82.2,63.4,30.02,WSW,242,1.0,1.0,53,0.00,,SCT055,0.00,VWS V14.01,2013-06-01 21:11:00,
2013-06-01 17:16:00,82.6,63.8,30.02,NW,309,2.0,4.0,53,0.00,,SCT055,0.00,VWS V14.01,2013-06-01 21:16:00,
2013-06-01 17:21:00,83.0,63.6,30.02,SSE,156,2.0,2.0,52,0.00,,SCT055,0.00,VWS V14.01,2013-06-01 21:21:00,
2013-06-01 17:26:00,83.9,63.8,30.02,SW,215,3.0,7.0,51,0.00,,SCT065,0.00,VWS V14.01,2013-06-01 21:26:00,
2013-06-01 17:31:00,84.2,63.0,30.02,SW,215,3.0,8.0,49,0.00,,SCT065,0.00,VWS V14.01,2013-06-01 21:31:00,
2013-06-01 17:36:00,83.9,63.8,30.02,West,278,2.0,6.0,51,0.00,,SCT065,0.00,VWS V14.01,2013-06-01 21:36:00,
2013-06-01 17:41:00,83.7,63.1,30.02,SW,236,3.0,5.0,50,0.00,,SCT060,0.00,VWS V14.01,2013-06-01 21:41:00,
2013-06-01 17:46:00,83.3,63.3,30.02,WSW,253,3.0,3.0,51,0.00,,SCT060,0.00,VWS V14.01,2013-06-01 21:46:00,
2013-06-01 17:51:00,83.0,62.5,30.02,WSW,240,4.0,5.0,50,0.00,,SCT060,0.00,VWS V14.01,2013-06-01 21:51:00,
2013-06-01 17:56:00,83.1,62.5,30.02,WSW,240,3.0,4.0,50,0.00,,SCT060,0.00,VWS V14.01,2013-06-01 21:56:00,
2013-06-01 18:01:00,83.1,62.5,30.02,SSW,210,1.0,3.0,50,0.00,,SCT060,0.00,VWS V14.01,2013-06-01 22:01:00,
2013-06-01 18:06:00,83.5,62.3,30.02,WSW,253,1.0,7.0,49,0.00,,SCT060,0.00,VWS V14.01,2013-06-01 22:06:00,
2013-06-01 18:11:00,82.8,62.3,30.02,SSW,212,1.0,9.0,50,0.00,,SCT060,0.00,VWS V14.01,2013-06-01 22:11:00,
2013-06-01 18:16:00,82.2,62.8,30.02,SW,215,2.0,5.0,52,0.00,,SCT060,0.00,VWS V14.01,2013-06-01 22:16:00,
2013-06-01 18:21:00,82.1,62.8,30.02,SSE,160,4.0,8.0,52,0.00,,SCT050,0.00,VWS V14.01,2013-06-01 22:21:00,
2013-06-01 18:26:00,81.7,62.4,30.01,SW,215,6.0,6.0,52,0.00,,SCT050,0.00,VWS V14.01,2013-06-01 22:26:00,
2013-06-01 18:31:00,81.4,62.6,30.01,WSW,246,2.0,4.0,53,0.00,,SCT050,0.00,VWS V14.01,2013-06-01 22:31:00,
2013-06-01 18:36:00,81.2,63.0,30.01,SW,232,3.0,4.0,54,0.00,,SCT050,0.00,VWS V14.01,2013-06-01 22:36:00,
2013-06-01 18:41:00,81.6,62.8,30.01,SSW,207,1.0,6.0,53,0.00,,CLR,0.00,VWS V14.01,2013-06-01 22:41:00,
2013-06-01 18:46:00,81.9,63.6,30.01,East,91,1.0,1.0,54,0.00,,CLR,0.00,VWS V14.01,2013-06-01 22:46:00,
2013-06-01 18:51:00,82.0,63.2,30.01,WSW,245,7.0,7.0,53,0.00,,CLR,0.00,VWS V14.01,2013-06-01 22:51:00,
2013-06-01 18:56:00,82.5,63.7,30.01,WNW,302,1.0,1.0,53,0.00,,CLR,0.00,VWS V14.01,2013-06-01 22:56:00,
2013-06-01 19:01:00,82.8,62.8,30.00,NW,321,2.0,4.0,51,0.00,,CLR,0.00,VWS V14.01,2013-06-01 23:01:00,
2013-06-01 19:06:00,82.5,62.6,30.00,SW,222,3.0,9.0,51,0.00,,CLR,0.00,VWS V14.01,2013-06-01 23:06:00,
2013-06-01 19:11:00,82.3,62.4,30.00,WSW,253,6.0,8.0,51,0.00,,CLR,0.00,VWS V14.01,2013-06-01 23:11:00,
2013-06-01 19:16:00,82.1,62.2,30.00,SSW,207,3.0,4.0,51,0.00,,CLR,0.00,VWS V14.01,2013-06-01 23:16:00,
2013-06-01 19:21:00,82.0,62.7,30.00,South,184,1.0,3.0,52,0.00,,CLR,0.00,VWS V14.01,2013-06-01 23:21:00,
2013-06-01 19:26:00,82.2,62.8,30.00,SW,235,0.0,3.0,52,0.00,,CLR,0.00,VWS V14.01,2013-06-01 23:26:00,
2013-06-01 19:31:00,82.4,63.0,30.00,SSE,160,2.0,3.0,52,0.00,,CLR,0.00,VWS V14.01,2013-06-01 23:31:00,
2013-06-01 19:36:00,82.3,63.5,30.00,SSE,153,0.0,3.0,53,0.00,,CLR,0.00,VWS V14.01,2013-06-01 23:36:00,
2013-06-01 19:41:00,82.5,63.7,30.00,SW,219,0.0,0.0,53,0.00,,CLR,0.00,VWS V14.01,2013-06-01 23:41:00,
2013-06-01 19:46:00,82.9,64.0,30.00,SSE,148,1.0,1.0,53,0.00,,CLR,0.00,VWS V14.01,2013-06-01 23:46:00,
2013-06-01 19:51:00,82.8,64.5,30.00,WSW,253,0.0,1.0,54,0.00,,CLR,0.00,VWS V14.01,2013-06-01 23:51:00,
2013-06-01 19:56:00,82.8,64.5,30.00,WSW,242,1.0,1.0,54,0.00,,CLR,0.00,VWS V14.01,2013-06-01 23:56:00,
2013-06-01 20:01:00,81.9,64.7,30.00,ESE,115,1.0,1.0,56,0.00,,CLR,0.00,VWS V14.01,2013-06-02 00:01:00,
2013-06-01 20:06:00,81.4,64.2,30.00,SW,215,0.0,0.0,56,0.00,,CLR,0.00,VWS V14.01,2013-06-02 00:06:00,
2013-06-01 20:11:00,81.0,63.8,30.00,SW,221,0.0,1.0,56,0.00,,CLR,0.00,VWS V14.01,2013-06-02 00:11:00,
2013-06-01 20:16:00,80.5,63.9,30.00,SW,222,0.0,1.0,57,0.00,,CLR,0.00,VWS V14.01,2013-06-02 00:16:00,
2013-06-01 20:21:00,79.7,63.6,30.00,SW,217,1.0,1.0,58,0.00,,CLR,0.00,VWS V14.01,2013-06-02 00:21:00,
2013-06-01 20:26:00,78.9,63.8,30.00,SSW,212,1.0,1.0,60,0.00,,CLR,0.00,VWS V14.01,2013-06-02 00:26:00,
2013-06-01 20:31:00,78.2,63.7,30.00,SW,236,1.0,1.0,61,0.00,,CLR,0.00,VWS V14.01,2013-06-02 00:31:00,
2013-06-01 20:36:00,77.5,63.5,30.00,WSW,257,1.0,1.0,62,0.00,,CLR,0.00,VWS V14.01,2013-06-02 00:36:00,
2013-06-01 20:41:00,77.0,63.5,30.00,WSW,243,0.0,1.0,63,0.00,,CLR,0.00,VWS V14.01,2013-06-02 00:41:00,
2013-06-01 20:46:00,76.4,63.3,30.00,WSW,243,0.0,0.0,64,0.00,,CLR,0.00,VWS V14.01,2013-06-02 00:46:00,
2013-06-01 20:50:00,75.9,64.2,30.00,WSW,243,0.0,0.0,67,0.00,,CLR,0.00,VWS V14.01,2013-06-02 00:50:00,
2013-06-01 20:55:00,75.2,63.9,30.00,WSW,243,0.0,0.0,68,0.00,,CLR,0.00,VWS V14.01,2013-06-02 00:55:00,
2013-06-01 21:00:00,74.7,64.7,30.00,WSW,243,0.0,0.0,71,0.00,,CLR,0.00,VWS V14.01,2013-06-02 01:00:00,
2013-06-01 21:05:00,74.2,64.6,30.00,WSW,243,0.0,0.0,72,0.00,,CLR,0.00,VWS V14.01,2013-06-02 01:05:00,
2013-06-01 21:10:00,73.9,65.1,30.00,WSW,243,0.0,0.0,74,0.00,,CLR,0.00,VWS V14.01,2013-06-02 01:10:00,
2013-06-01 21:15:00,73.3,64.5,30.01,WSW,243,0.0,0.0,74,0.00,,CLR,0.00,VWS V14.01,2013-06-02 01:15:00,
2013-06-01 21:20:00,72.8,64.0,30.01,WSW,243,0.0,0.0,74,0.00,,CLR,0.00,VWS V14.01,2013-06-02 01:20:00,
2013-06-01 21:25:00,72.1,64.5,30.01,SSE,155,0.0,1.0,77,0.00,,CLR,0.00,VWS V14.01,2013-06-02 01:25:00,
2013-06-01 21:30:00,71.3,64.1,30.01,SSE,155,0.0,0.0,78,0.00,,CLR,0.00,VWS V14.01,2013-06-02 01:30:00,
2013-06-01 21:35:00,70.9,64.1,30.01,SSE,155,0.0,0.0,79,0.00,,CLR,0.00,VWS V14.01,2013-06-02 01:35:00,
2013-06-01 21:40:00,70.7,64.2,30.01,SSE,155,0.0,0.0,80,0.00,,CLR,0.00,VWS V14.01,2013-06-02 01:40:00,
2013-06-01 21:45:00,70.3,63.8,30.01,SSE,155,0.0,0.0,80,0.00,,CLR,0.00,VWS V14.01,2013-06-02 01:45:00,
2013-06-01 21:50:00,70.3,64.2,30.01,SSE,155,0.0,0.0,81,0.00,,CLR,0.00,VWS V14.01,2013-06-02 01:50:00,
2013-06-01 21:55:00,70.1,64.0,30.01,SSE,155,0.0,0.0,81,0.00,,CLR,0.00,VWS V14.01,2013-06-02 01:55:00,
2013-06-01 22:00:00,69.9,64.2,30.02,SSE,155,0.0,0.0,82,0.00,,CLR,0.00,VWS V14.01,2013-06-02 02:00:00,
2013-06-01 22:05:00,69.6,64.2,30.02,SSE,155,0.0,0.0,83,0.00,,CLR,0.00,VWS V14.01,2013-06-02 02:05:00,
2013-06-01 22:10:00,69.2,64.2,30.02,SSE,155,0.0,0.0,84,0.00,,CLR,0.00,VWS V14.01,2013-06-02 02:10:00,
2013-06-01 22:15:00,68.8,63.8,30.02,SSE,155,0.0,0.0,84,0.00,,CLR,0.00,VWS V14.01,2013-06-02 02:15:00,
2013-06-01 22:20:00,68.6,63.9,30.02,SSE,155,0.0,0.0,85,0.00,,SCT048,0.00,VWS V14.01,2013-06-02 02:20:00,
2013-06-01 22:25:00,68.4,63.7,30.02,SSE,155,0.0,0.0,85,0.00,,SCT048,0.00,VWS V14.01,2013-06-02 02:25:00,
2013-06-01 22:30:00,68.2,63.9,30.03,SSE,155,0.0,0.0,86,0.00,,SCT048,0.00,VWS V14.01,2013-06-02 02:30:00,
2013-06-01 22:35:00,68.1,63.8,30.03,SSE,155,0.0,0.0,86,0.00,,SCT048,0.00,VWS V14.01,2013-06-02 02:35:00,
2013-06-01 22:40:00,68.0,64.0,30.03,SSE,155,0.0,0.0,87,0.00,,SCT050,0.00,VWS V14.01,2013-06-02 02:40:00,
2013-06-01 22:45:00,67.9,63.9,30.02,SSE,155,0.0,0.0,87,0.00,,SCT050,0.00,VWS V14.01,2013-06-02 02:45:00,
2013-06-01 22:50:00,67.7,63.7,30.02,SSE,155,0.0,0.0,87,0.00,,SCT050,0.00,VWS V14.01,2013-06-02 02:50:00,
2013-06-01 22:55:00,67.6,63.6,30.02,SSE,155,0.0,0.0,87,0.00,,SCT050,0.00,VWS V14.01,2013-06-02 02:55:00,
2013-06-01 23:00:00,67.5,63.5,30.02,SSE,155,0.0,0.0,87,0.00,,SCT048,0.00,VWS V14.01,2013-06-02 03:00:00,
2013-06-01 23:05:00,67.3,63.6,30.02,SSE,155,0.0,0.0,88,0.00,,SCT048,0.00,VWS V14.01,2013-06-02 03:05:00,
2013-06-01 23:10:00,67.3,63.6,30.02,SSE,155,0.0,0.0,88,0.00,,SCT048,0.00,VWS V14.01,2013-06-02 03:10:00,
2013-06-01 23:15:00,67.1,63.4,30.02,SSE,155,0.0,0.0,88,0.00,,SCT048,0.00,VWS V14.01,2013-06-02 03:15:00,
2013-06-01 23:20:00,66.9,63.6,30.02,SSE,155,0.0,0.0,89,0.00,,CLR,0.00,VWS V14.01,2013-06-02 03:20:00,
2013-06-01 23:25:00,67.0,63.7,30.02,SSE,155,0.0,0.0,89,0.00,,CLR,0.00,VWS V14.01,2013-06-02 03:25:00,
2013-06-01 23:30:00,67.1,63.8,30.02,East,100,0.0,1.0,89,0.00,,CLR,0.00,VWS V14.01,2013-06-02 03:30:00,
2013-06-01 23:35:00,67.0,63.7,30.02,East,100,0.0,0.0,89,0.00,,CLR,0.00,VWS V14.01,2013-06-02 03:35:00,
2013-06-01 23:40:00,66.8,63.5,30.02,East,100,0.0,0.0,89,0.00,,CLR,0.00,VWS V14.01,2013-06-02 03:40:00,
2013-06-01 23:45:00,66.8,63.8,30.02,East,100,0.0,0.0,90,0.00,,CLR,0.00,VWS V14.01,2013-06-02 03:45:00,
2013-06-01 23:50:00,66.9,63.9,30.02,East,100,0.0,0.0,90,0.00,,CLR,0.00,VWS V14.01,2013-06-02 03:50:00,
2013-06-01 23:55:00,66.9,63.9,30.03,ESE,110,0.0,0.0,90,0.00,,CLR,0.00,VWS V14.01,2013-06-02 03:55:00,